Погода Илирней

Погода Илирней : погода сейчас, прогноз погоды и архив. Всё, что Вы хотите узнать о погоде Илирней!

Хотите узнать прогноз погоды Илирней? Тогда Вам сюда: Погода Илирней

Поиск расширенной информации на нашем сайте:

Другие новости

Новости СМИ2

Главная страница сайта

Новости сайта

03.07.2017

Напоминаем, что на нашем специализированном сайте Метеоцентр.Азия вы можете получить высокодетализированные автоматические прогнозы погоды по пунктам России, СНГ и мира в авиационном формате (включающие направление и скорость ветра, видимость, явления погоды, количество и форму облачности, нижнюю и верхнюю границу облачности).


Погода Илирней - сегодня

Время (UTC), дата Ветер
(°,м/с) 
Видим.   Явления Облачность Т
(°С)
Тd
(°С)
f(%) Тe
(°С)
Pmin
(гПа)
dP
(гПа)
Po
(мм)
O2
(г/м3)
Тmin Tmax R s Состояние
почвы
18 17.04.18 350 (С) 1{05}  20000 м  {снег}  10/0 средняя 
[Ac und]
-3.3 -5.7 83 -3  1000.4  0.7  718  294           
03 18.04.18 090 (В) 3{08}  20000 м    5/0 средняя 
[Ac trans]
-0.4 -4.8 72 -2  1003.6  0.9  720  291           
06 18.04.18 090 (В) 2{06}  20000 м    8/8 600 м 
[Sc]
-0.5 -4.2 76 -1  1004.5  0.8  721  291           
12 18.04.18 080 (В) 3{05}  20000 м    10/0 средняя 
[Ac und]
-3 -5.7 82 -5  1007.3  0.9  722  295           
15 18.04.18 100 (В) 1{07}  20000 м    10/0 средняя 
[Ac und]
-6.2 -8.1 86 -6  1009.4  723  299           
18 18.04.18 тихо () {02}  20000 м    10/0 средняя 
[Ac und]
-6.2 -8.1 86 -6  1009.4  0.6  724  299           
03 19.04.18 070 (В) 2{05}  20000 м    3/0 
[Sc]
-1.1 -8.1 59 -2  1009.9  0.4  725  294           
06 19.04.18 070 (В) 1{04}  20000 м    ясно 
-0.7 -8.4 56 1010  0.4  725  294           
12 19.04.18 090 (В) 1{04}  20000 м    ясно 
-15 -17 85 -15  1015.4  1.3  727  311           
15 19.04.18 090 (В) 1{03}  20000 м    ясно 
-18.3 -20.2 85 -19  1017.8  728  316           
18 19.04.18 тихо () {02}  20000 м    ясно 
-20.2 -22.1 85 -20  1018  0.6  728  318           
00 20.04.18 тихо () {01}  20000 м    ясно 
-4.1 -12 54 -4  1014.8  -0.2  728  299           
03 20.04.18 тихо () {02}  20000 м    ясно 
-0.2 -10.3 46 -0  1013.9  -0.3  728  294           
06 20.04.18 070 (В) 1{03}  20000 м    ясно 
-0.6 -9.6 51 1014.1  0.2  728  295           
12 20.04.18 150 (ЮВ) 1{03}  20000 м    ясно 
-15.6 -17.5 85 -16  1019.5  1.5  730  313           
15 20.04.18 100 (В) 1{02}  20000 м    ясно 
-21.3 -23.1 85 -22  1022  1.3  731  321           
18 20.04.18 тихо () {02}  20000 м    ясно 
-22.5 -25 80 -23  1023.1  0.8  731  323           
00 21.04.18 120 (ЮВ) 1{02}  20000 м    ясно 
-6.8 -13.5 59 -6  1020  -0.1  731  303           
03 21.04.18 030 (СВ) 1{05}  20000 м    8/0 верхняя 
[Cs]
-4.5 -10.6 62 -4  1019.9  0.3  731  301           
06 21.04.18 070 (В) 1{05}  20000 м    10/0 верхняя 
[Cs]
-3.5 -10 61 -3  1019.2  -0.4  731  299           
12 21.04.18 тихо () {05}  20000 м    10/0 верхняя 
[Cs]
-13.5 -14.8 90 -14  1022.4  0.5  732  312           
15 21.04.18 тихо () {03}  20000 м    10/0 верхняя 
[Cs]
-20.6 -22.5 85 -21  1024.5  0.6  733  321           
18 21.04.18 тихо () {03}  20000 м    10/0 верхняя 
[Cs]
-23.1 -25.5 81 -23  1025.1  0.2  733  324           
03 22.04.18 070 (В) 3{05}  20000 м    5/0 верхняя 
[Cs]
-4.5 -13.1 51 -7  1020.3  -0.3  732  301           
06 22.04.18 080 (В) 3{06}  20000 м    3/0 верхняя 
[Cs]
-4 -11.7 55 -6  1020.2  -0.1  732  300           
Время (UTC), дата Ветер
(°,м/с) 
Видим.   Явления Облачность Т
(°С)
Тd
(°С)
f(%) Тe
(°С)
Pmin
(гПа)
dP
(гПа)
Po
(мм)
O2
(г/м3)
Тmin Tmax R s Состояние
почвы

Для получения пояснительной информации подведите курсор к названию столбца.

ПОГОДА Илирней - архив

Всё, что Вы хотите узнать о погоде Илирней - удобно и подробно!

Выберите нужную дату (начиная с 1 января 2015* года) и нажмите кнопку "Найти".
Будут отображены архивные сводки погоды по пункту Илирней, начиная с указанной даты.


Отображать данные в формате CSV (для использования в таблицах Excel)


Внимание! Наш архив погоды предназначен исключительно для личного некоммерческого использования в познавательных целях. Если Вам необходимы официальные справки о состоянии погоды (для производственных, юридических, коммерческих и т.п. целей), обращайтесь в органы Росгидромета.

*Примечание: данная дата относится к архиву по метеостанциям СССР (Россия, СНГ, Балтия).
Архив по метеостанциям Зарубежной Европы и Азии (кроме Китая) хранится 10 дней, по другим регионам земного шара (Китай, Африка, Америка, Австралия, Океания) - 1 день.

Илирней - район местоположения метеостанции


Название, широта, долгота, высота метеостанции:
Илирней 67.2°ш. 168°д. 353 м над ур. моря [Российская Федерация]

Дополнительная информация

В oтличие oт бoльшинства пoгoдных сайтoв мы публикуем пoдрoбную метеoинфoрмацию в детальнoм прoфессиoнальнoм фoрмате.

Характеристики температуры и влажнoсти вoздуха измеряются на высoте 2 м в тени вдали oт зданий и деревьев.
Скoрoсть ветра измеряется на высoте 10 м (на урoвне рoста челoвека скoрoсть ветра ниже в 1.5-2 раза). Если метеoстанция нахoдится в гoрoде или в лесу, тo скoрoсть ветра занижена на 2-4 м/с пo сравнению с oткрытым местoм. Скoрoсть ветра над акватoриями крупных рек и oзёр, а также на вершинах хoлмoв на 2-5 м/с выше, чем в oбычных услoвиях.
Атмoсфернoе давление в разных тoчках местнoсти мoжет значительнo oтличаться oт давления на метеoстанции, в зависимoсти oт услoвий рельефа (при пoдъёме на 10 м давление пoнижается примернo на 1 мм рт.ст.).